Météo par heure à Aliseda

Ce jour, 31 Octobre, Samedi

Heure Température Précipitation Vent Pression Humidité
00:00 +14°C° 0 mm 1 m/s 729 mmHg 71%
01:00 +14°C° 0 mm 1 m/s 728 mmHg 72%
02:00 +13°C° 0 mm 1 m/s 728 mmHg 73%
03:00 +13°C° 0 mm 1 m/s 728 mmHg 74%
04:00 +13°C° 0 mm 1 m/s 728 mmHg 76%
05:00 +12°C° 0 mm 1 m/s 728 mmHg 77%
06:00 +12°C° 0 mm 1 m/s 729 mmHg 78%
07:00 +13°C° 0 mm 1 m/s 729 mmHg 73%
08:00 +14°C° 0 mm 0 m/s 730 mmHg 68%
09:00 +15°C° 0 mm 0 m/s 730 mmHg 63%
10:00 +17°C° 0 mm 0 m/s 730 mmHg 57%
11:00 +19°C° 0 mm 0 m/s 730 mmHg 51%
12:00 +23°C° 0 mm 1 m/s 730 mmHg 45%
13:00 +24°C° 0 mm 1 m/s 730 mmHg 46%
14:00 +24°C° 0 mm 1 m/s 729 mmHg 46%
15:00 +24°C° 0 mm 2 m/s 729 mmHg 47%
16:00 +22°C° 0 mm 1 m/s 729 mmHg 54%
17:00 +20°C° 0 mm 1 m/s 729 mmHg 62%
18:00 +19°C° 0 mm 1 m/s 729 mmHg 69%
19:00 +18°C° 0 mm 1 m/s 729 mmHg 73%
20:00 +16°C° 0 mm 1 m/s 729 mmHg 76%
21:00 +16°C° 0 mm 1 m/s 730 mmHg 80%
22:00 +15°C° 0 mm 1 m/s 730 mmHg 82%
23:00 +15°C° 0 mm 1 m/s 729 mmHg 84%

Demain, 1 Novembre, Dimanche

Heure Température Précipitation Vent Pression Humidité
00:00 +14°C° 0 mm 0 m/s 729 mmHg 86%
01:00 +13°C° 0 mm 0 m/s 729 mmHg 87%
02:00 +13°C° 0 mm 0 m/s 729 mmHg 87%
03:00 +13°C° 0 mm 0 m/s 729 mmHg 88%
04:00 +12°C° 0 mm 0 m/s 729 mmHg 88%
05:00 +12°C° 0 mm 0 m/s 729 mmHg 88%
06:00 +12°C° 0 mm 0 m/s 729 mmHg 88%
07:00 +13°C° 0 mm 0 m/s 729 mmHg 83%
08:00 +15°C° 0 mm 0 m/s 729 mmHg 78%
09:00 +16°C° 0 mm 0 m/s 730 mmHg 73%
10:00 +17°C° 0 mm 0 m/s 730 mmHg 66%
11:00 +21°C° 0 mm 1 m/s 730 mmHg 60%
12:00 +23°C° 0 mm 1 m/s 730 mmHg 53%
13:00 +23°C° 0 mm 1 m/s 729 mmHg 51%
14:00 +23°C° 0 mm 1 m/s 729 mmHg 50%
15:00 +24°C° 0 mm 1 m/s 728 mmHg 48%
16:00 +22°C° 0 mm 1 m/s 728 mmHg 54%
17:00 +20°C° 0 mm 1 m/s 728 mmHg 61%
18:00 +19°C° 0 mm 1 m/s 728 mmHg 67%
19:00 +16°C° 0 mm 0 m/s 728 mmHg 69%
20:00 +16°C° 0 mm 0 m/s 728 mmHg 71%
21:00 +16°C° 0 mm 0 m/s 728 mmHg 73%
22:00 +15°C° 0 mm 0 m/s 728 mmHg 75%
23:00 +15°C° 0 mm 0 m/s 728 mmHg 76%

Après-demain, 2 Novembre, Lundi

Heure Température Précipitation Vent Pression Humidité
00:00 +15°C° 0 mm 0 m/s 728 mmHg 78%
01:00 +14°C° 0 mm 0 m/s 728 mmHg 80%
02:00 +14°C° 0 mm 0 m/s 727 mmHg 82%
03:00 +14°C° 0 mm 0 m/s 727 mmHg 84%
04:00 +14°C° 0 mm 0 m/s 727 mmHg 85%
05:00 +13°C° 0 mm 0 m/s 727 mmHg 86%
06:00 +13°C° 0 mm 0 m/s 727 mmHg 87%
07:00 +14°C° 0 mm 0 m/s 728 mmHg 83%
08:00 +15°C° 0 mm 0 m/s 728 mmHg 79%
09:00 +16°C° 0 mm 0 m/s 728 mmHg 75%
10:00 +18°C° 0 mm 0 m/s 728 mmHg 71%
11:00 +21°C° 0 mm 1 m/s 728 mmHg 66%
12:00 +22°C° 0 mm 1 m/s 728 mmHg 62%
13:00 +22°C° 0 mm 1 m/s 728 mmHg 61%
14:00 +22°C° 0 mm 1 m/s 728 mmHg 61%
15:00 +23°C° 0 mm 1 m/s 728 mmHg 60%
16:00 +22°C° 0 mm 1 m/s 728 mmHg 64%
17:00 +21°C° 0 mm 1 m/s 728 mmHg 68%
18:00 +20°C° 0 mm 1 m/s 728 mmHg 72%
19:00 +19°C° 0 mm 1 m/s 728 mmHg 76%
20:00 +19°C° 0 mm 1 m/s 728 mmHg 80%
21:00 +17°C° 0 mm 2 m/s 729 mmHg 83%
22:00 +17°C° 0 mm 2 m/s 729 mmHg 86%
23:00 +16°C° 0 mm 2 m/s 729 mmHg 88%

3 Novembre, Mardi

Heure Température Précipitation Vent Pression Humidité
00:00 +16°C° 0 mm 2 m/s 728 mmHg 91%
01:00 +16°C° 0 mm 2 m/s 728 mmHg 91%
02:00 +15°C° 0 mm 2 m/s 728 mmHg 91%
03:00 +15°C° 0 mm 2 m/s 728 mmHg 90%
04:00 +15°C° 0 mm 2 m/s 728 mmHg 88%
05:00 +14°C° 0 mm 2 m/s 728 mmHg 86%
06:00 +13°C° 0 mm 3 m/s 728 mmHg 84%
07:00 +13°C° 0 mm 3 m/s 729 mmHg 77%
08:00 +13°C° 0 mm 3 m/s 729 mmHg 70%
09:00 +14°C° 0 mm 3 m/s 729 mmHg 63%
10:00 +16°C° 0 mm 3 m/s 729 mmHg 61%
11:00 +18°C° 0 mm 3 m/s 729 mmHg 58%
12:00 +20°C° 0 mm 4 m/s 729 mmHg 56%
13:00 +20°C° 0 mm 4 m/s 729 mmHg 55%
14:00 +21°C° 0 mm 4 m/s 729 mmHg 55%
15:00 +21°C° 0 mm 4 m/s 729 mmHg 54%
16:00 +20°C° 0 mm 4 m/s 729 mmHg 57%
17:00 +18°C° 0 mm 4 m/s 728 mmHg 61%
18:00 +17°C° 0 mm 4 m/s 728 mmHg 64%
19:00 +15°C° 0 mm 4 m/s 729 mmHg 66%
20:00 +15°C° 0 mm 4 m/s 729 mmHg 68%
21:00 +14°C° 0 mm 4 m/s 729 mmHg 70%
22:00 +14°C° 0 mm 4 m/s 729 mmHg 69%
23:00 +13°C° 0 mm 4 m/s 729 mmHg 67%

4 Novembre, Mercredi

Heure Température Précipitation Vent Pression Humidité
00:00 +13°C° 0 mm 4 m/s 729 mmHg 66%
01:00 +12°C° 0 mm 4 m/s 728 mmHg 65%
02:00 +12°C° 0 mm 4 m/s 728 mmHg 65%
03:00 +11°C° 0 mm 3 m/s 728 mmHg 64%
04:00 +11°C° 0 mm 3 m/s 728 mmHg 64%
05:00 +11°C° 0 mm 3 m/s 728 mmHg 65%
06:00 +10°C° 0 mm 3 m/s 727 mmHg 65%
07:00 +11°C° 0 mm 4 m/s 727 mmHg 64%
08:00 +11°C° 0 mm 4 m/s 727 mmHg 62%
09:00 +12°C° 0 mm 4 m/s 727 mmHg 61%
10:00 +12°C° 0 mm 4 m/s 726 mmHg 59%
11:00 +13°C° 0 mm 4 m/s 726 mmHg 57%
12:00 +13°C° 0 mm 4 m/s 725 mmHg 55%
13:00 +14°C° 0 mm 3 m/s 724 mmHg 54%
14:00 +14°C° 0 mm 3 m/s 724 mmHg 52%
15:00 +16°C° 0 mm 3 m/s 723 mmHg 51%
16:00 +14°C° 0 mm 4 m/s 722 mmHg 50%
17:00 +13°C° 0 mm 4 m/s 722 mmHg 50%
18:00 +12°C° 0 mm 4 m/s 721 mmHg 49%
19:00 +11°C° 0 mm 4 m/s 721 mmHg 52%
20:00 +11°C° 0 mm 4 m/s 721 mmHg 55%
21:00 +10°C° 0 mm 4 m/s 720 mmHg 58%
22:00 +10°C° 0.1 mm 4 m/s 720 mmHg 61%
23:00 +10°C° 0.1 mm 4 m/s 719 mmHg 63%

5 Novembre, Jeudi

Heure Température Précipitation Vent Pression Humidité
00:00 +8°C° 0.1 mm 5 m/s 718 mmHg 65%
01:00 +8°C° 0 mm 5 m/s 718 mmHg 67%
02:00 +8°C° 0 mm 5 m/s 717 mmHg 69%
03:00 +7°C° 0 mm 5 m/s 716 mmHg 71%
04:00 +8°C° 0.1 mm 5 m/s 716 mmHg 74%
05:00 +8°C° 0.1 mm 5 m/s 715 mmHg 78%
06:00 +8°C° 0.1 mm 5 m/s 715 mmHg 81%
07:00 +8°C° 0.2 mm 6 m/s 715 mmHg 79%
08:00 +9°C° 0.2 mm 6 m/s 715 mmHg 78%
09:00 +9°C° 0.2 mm 6 m/s 714 mmHg 76%
10:00 +10°C° 0.3 mm 7 m/s 714 mmHg 76%
11:00 +11°C° 0.3 mm 7 m/s 714 mmHg 75%
12:00 +12°C° 0.3 mm 7 m/s 714 mmHg 75%
13:00 +14°C° 0.5 mm 7 m/s 714 mmHg 70%
14:00 +14°C° 0.5 mm 7 m/s 715 mmHg 66%
15:00 +14°C° 0.5 mm 6 m/s 715 mmHg 61%
16:00 +13°C° 0 mm 5 m/s 715 mmHg 64%
17:00 +12°C° 0 mm 4 m/s 716 mmHg 66%
18:00 +11°C° 0 mm 3 m/s 716 mmHg 69%
19:00 +10°C° 0 mm 3 m/s 717 mmHg 71%
20:00 +10°C° 0 mm 2 m/s 717 mmHg 74%
21:00 +9°C° 0 mm 2 m/s 718 mmHg 77%
22:00 +10°C° 0 mm 2 m/s 718 mmHg 79%
23:00 +10°C° 0 mm 2 m/s 718 mmHg 81%
Voir plus

Nous avons besoin de votre consentement

Meteoprog et ses fournisseurs de services peuvent stocker et accéder à des données personnelles telles que des cookies, des identifiants d'appareils ou d'autres technologies similaires sur votre appareil et traiter ces données pour personnaliser le contenu et les publicités, ainsi que pour fournir des fonctionnalités de médias sociaux et analyser le trafic.

  • Stocker et/ou accéder à des informations sur votre appareil

    Des cookies, des identifiants d'appareils ou d'autres informations peuvent être stockés ou accessibles sur votre appareil aux fins indiquées ci-dessus.

  • Annonces et contenus personnalisés, mesure des annonces et des contenus, connaissance de l'audience et développement de produits

    Les annonces et le contenu peuvent être personnalisés en fonction d'un profil. D'autres données peuvent être ajoutées pour mieux personnaliser les annonces et le contenu. Les performances des publicités et du contenu peuvent être mesurées. Il est possible d'obtenir des informations sur le public qui a vu les publicités et le contenu. Ces données peuvent être utilisées pour développer ou améliorer l'expérience de l'utilisateur, les systèmes et les logiciels.

En cliquant sur "J'accepte", vous autorisez l'utilisation de cookies, des identifiants d'appareils, des balises web ou d'autres technologies similaires. Vos paramètres peuvent être modifiés dans le navigateur de votre appareil.

Dans certains cas, des intérêts légitimes peuvent être invoqués plutôt qu'un consentement. Vous pouvez en savoir plus à ce sujet dans notre Politique de confidentialité et de cookies.